Location: ???????
(55.4362°N, 38.1183°E)
Time: 19:58:43
(UTC+00:00)

M-CUBED/EXP-1 PRIME - Pass Details

Date: 08 December 2021
Orbit: 426 x 650 km, 101.7° (Epoch: 26 January)

Event Time Altitude Azimuth Distance (km) Brightness Sun altitude
Rises 15:20:17 0° 172° (S) 2,827 ? -18.7°
Reaches altitude 10° 15:22:27 10° 178° (S) 1,960 ? -19.0°
Maximum altitude 15:26:36 49° 254° (WSW) 818 ? -19.6°
Drops below altitude 10° 15:30:58 10° 330° (NNW) 2,059 ? -20.2°
Sets 15:33:17 0° 336° (NNW) 2,985 ? -20.5°
